Weather in Weggis

Switzerland     47°02′04″N   8°25′59″E
temp.,
°C
wind,
m/s
gust,
m/s
humid.,
%
clouds,
%
prec.,
mm/h
press.,
hPa
HPBL,
m
25 june, sat
sat2523:00+9sse22875 0.0 101720
02:00+9sse32840 0.0 101730
05:00+9sse32838 0.0 101632
08:00+15se11655 0.0 1016170
11:00+19n22500 0.0 10141291
14:00+22nnw33442 0.0 10121666
17:00+22nnw324815 0.0 10121520
20:00+19n11767 0.1 101232
26 june, sun
sun2623:00+14sse327810 0.0 101438
02:00+13sse326912 0.3 101535
05:00+12sse22658 0.1 101526
08:00+17nw01652 0.1 1015141
11:00+20nnw22586 0.1 1015739
14:00+22nnw335551 0.3 10141393
17:00+23n225776 0.4 10131141
20:00+21ene117618 0.6 101232
27 june, mon
mon2723:00+16sse44722 0.0 101373
02:00+15sse33732 0.0 101440
05:00+12sse018983 0.0 101620
08:00+16nnw118740 0.1 1016208
11:00+20nnw216854 0.0 1015843
14:00+21nnw3267100 0.3 10161104
17:00+15nnw3396100 0.8 1019380
20:00+13ne1299100 16.8 1022131
28 june, tue
tue2823:00+12ene1198100 4.3 102331
02:00+11se119948 4.3 102444
05:00+11nne119977 0.7 102349
08:00+12nne119799 1.4 1022210
11:00+14n2289100 0.1 1020504
14:00+14n1194100 1.3 1020351
17:00+14wnw1197100 2.0 1020265
20:00+14ene1197100 3.9 102034
29 june, wed
wed2923:00+13se1197100 1.7 102011
02:00+13sse1196100 1.8 101911
05:00+13sse0096100 0.0 101811
08:00+15nne009355 0.0 1017162
11:00+19nnw2174100 0.1 1016772
14:00+20n226883 0.3 1015963
17:00+20n227164 0.1 1015600
20:00+19n12829 0.1 1014132